Flag for Norway Weather past 2 weeks in Sarpsborg, Norway

48 °F

Low clouds.

Feels Like: 42 °F
Forecast: 39 / 48 °F
Wind: 17 mph from Southwest

Location: Rygge

Current Time: Nov 27, 2015 at 6:37:06 AM

Latest Report: Nov 27, 2015 at 5:50 AM

Visibility: N/A

Pressure: 29.56 "Hg

Humidity: 94%

Dew point: 46 °F

Location of SarpsborgLocation

Historic Weather in Sarpsborg — Graph


Sarpsborg temperature yesterday

Maximum temperature yesterday: 45 °F (at 11:50 PM)
Minimum temperature yesterday: 27 °F (at 8:20 AM)
Average temperature yesterday: 34 °F

Past Weeks' High & Low Weather Summary

High50 °F (Nov 12, 1:50 PM)100% (Nov 12, 6:20 AM)29.98 "Hg (Nov 12, 6:20 AM)
Low14 °F (Nov 23, 1:50 AM)62% (Nov 15, 1:50 PM)29.15 "Hg (Nov 19, 4:20 AM)
Average35 °F90%29.55 "Hg
* Reported Nov 12 4:20 AM — Nov 27 4:20 AM, Sarpsborg, Weather by CustomWeather, © 2015

Note: Actual official high and low records may vary slightly from our data, if they occured in-between our weather recording intervals... More about our weather records


Sarpsborg weather history for previous 24 hours

Time TempWeatherWind HumidityBarometerVisibility
4:20 AM
Fri, Nov 27
48 °FLow clouds.18 mph94%29.56 "HgN/A
3:50 AM48 °FLow clouds.17 mph87%29.59 "HgN/A
3:20 AM48 °FLow clouds.18 mph94%29.59 "HgN/A
2:50 AM48 °FMostly cloudy.20 mph87%29.59 "HgN/A
2:20 AM48 °FOvercast.21 mph87%29.59 "HgN/A
1:50 AM48 °FMostly cloudy.20 mph87%29.62 "HgN/A
1:20 AM46 °FPassing clouds.23 mph87%29.59 "HgN/A
12:50 AM46 °FMostly cloudy.22 mph87%29.62 "HgN/A
12:20 AM46 °FPassing clouds.18 mph82%29.62 "HgN/A
11:50 PM
Thu, Nov 26
45 °FPassing clouds.17 mph87%29.65 "HgN/A
10:50 PM43 °FClear.15 mph87%29.65 "Hg10 mi
10:20 PM43 °FClear.14 mph81%29.65 "Hg10 mi
9:50 PM43 °FClear.14 mph81%29.68 "Hg10 mi
9:20 PM41 °FClear.13 mph87%29.68 "Hg10 mi
8:50 PM41 °FClear.13 mph81%29.71 "Hg10 mi
8:20 PM39 °FClear.10 mph81%29.71 "Hg10 mi
7:50 PM39 °FPassing clouds.10 mph75%29.71 "HgN/A
7:20 PM39 °FClear.10 mph70%29.71 "Hg10 mi
6:50 PM39 °FClear.13 mph70%29.71 "Hg10 mi
6:20 PM37 °FClear.9 mph75%29.71 "Hg10 mi
5:50 PM37 °FPassing clouds.8 mph75%29.74 "HgN/A
5:20 PM39 °FClear.12 mph70%29.74 "Hg10 mi
4:50 PM37 °FClear.9 mph75%29.74 "Hg10 mi
4:20 PM37 °FPassing clouds.7 mph81%29.74 "HgN/A
3:50 PM36 °FPassing clouds.8 mph81%29.77 "HgN/A
3:20 PM34 °FPassing clouds.6 mph93%29.77 "HgN/A
2:50 PM34 °FFog.7 mph93%29.77 "Hg3 mi
2:20 PM34 °FSunny.9 mph93%29.77 "Hg10 mi
1:50 PM34 °FSunny.8 mph93%29.77 "Hg10 mi
1:20 PM34 °FSunny.5 mph93%29.80 "Hg10 mi
12:50 PM34 °FSunny.6 mph93%29.80 "Hg10 mi
12:20 PM34 °FSunny.3 mph93%29.80 "Hg10 mi
11:50 AM32 °FSunny.5 mph93%29.80 "Hg10 mi
11:20 AM32 °FSunny.5 mph93%29.80 "Hg10 mi
10:50 AM30 °FSunny.2 mph100%29.80 "Hg10 mi
9:50 AM28 °FSunny.2 mph93%29.80 "Hg10 mi
9:20 AM28 °FSunny.1 mph100%29.77 "Hg10 mi
8:50 AM27 °FSunny.2 mph100%29.77 "Hg10 mi
8:20 AM27 °FClear.1 mph100%29.77 "Hg10 mi
7:20 AM28 °FClear.2 mph93%29.74 "Hg10 mi
6:50 AM28 °FChilly.2 mph93%29.71 "HgN/A
6:20 AM28 °FIce fog.1 mph93%29.71 "Hg0 mi
Weather by CustomWeather, © 2015

See weather overviewHow to use our weather pages